EW9769 Lake Ronkonkoma NY US current weather conditions

sailwx.info

Wind from 174 at 0 knots gusting 5

Air temperature 21.7° C
Dewpoint 18.1° C

Last reported at 2020-May-27 15:05 UTC.
Time now 2020-May-27 15:38 UTC

Location: N 40°51' W 073°06'.
View on Google Maps.

See reports from other nearby stations

  
Tides and Currents Weather Stations Pressure Air Temp Water Temp Dewpoint Dewpoint Depression Visibility Wind Speed Wind Dir Waves Ship Positions
date/time (UTC)wind fromknots sea level pressurealtimeterstation pressurevisibilityair tempwater tempwave heightnotes
2020-May-27 15:05 174 0 gusting 5 21.7
2020-May-27 15:00 198 0 gusting 3 21.7
2020-May-27 14:55 229 21.1
2020-May-27 14:50 155 20.6
2020-May-27 14:46 169 0 gusting 4 20.6
2020-May-27 14:40 147 0 gusting 3 20.0
2020-May-27 14:35 196 1 gusting 4 20.0
2020-May-27 14:30 155 0 gusting 4 20.0
2020-May-27 14:25 148 0 gusting 5 19.4
2020-May-27 14:20 230 1 gusting 5 19.4
2020-May-27 14:10 254 19.4
2020-May-27 14:05 167 18.9
2020-May-27 14:00 242 0 gusting 3 18.3
2020-May-27 13:55 155 18.3
2020-May-27 13:45 220 17.8
2020-May-27 13:40 091 0 gusting 4 17.2
2020-May-27 13:35 210 0 gusting 4 17.2
2020-May-27 13:25 168 17.2
2020-May-27 13:20 229 16.7
2020-May-27 13:15 116 0 gusting 5 16.7
2020-May-27 13:10 258 16.7
2020-May-27 13:05 201 16.7
2020-May-27 13:00 137 16.7
2020-May-27 12:51 240 16.1
2020-May-27 12:48 117 16.1
2020-May-27 12:41 214 16.1
2020-May-27 12:36 238 16.1
2020-May-27 12:32 235 16.1
2020-May-27 12:25 151 16.1
2020-May-27 12:20 167 16.1
2020-May-27 12:16 224 16.1
2020-May-27 12:11 191 15.6
2020-May-27 12:06 208 15.6
2020-May-27 12:01 208 15.6
2020-May-27 11:55 211 15.6
2020-May-27 11:50 200 15.6
2020-May-27 11:46 162 15.6
2020-May-27 11:40 149 15.6
2020-May-27 11:35 167 15.0
2020-May-27 11:31 181 15.0
2020-May-27 11:26 219 15.0
2020-May-27 11:20 146 15.0
2020-May-27 11:16 146 15.0
2020-May-27 11:11 109 15.0
2020-May-27 11:05 236 15.0
2020-May-27 11:02 236 15.0
2020-May-27 10:55 124 15.0
2020-May-27 10:50 148 15.0
2020-May-27 10:46 188 15.0
2020-May-27 10:40 206 15.0
2020-May-27 10:35 195 15.0
2020-May-27 10:31 226 15.0
2020-May-27 10:25 226 15.0
2020-May-27 10:20 226 15.0
2020-May-27 10:16 226 14.4
2020-May-27 10:10 215 14.4
2020-May-27 10:05 215 14.4
2020-May-27 10:02 212 14.4
2020-May-27 09:55 212 14.4
2020-May-27 09:50 212 14.4
2020-May-27 09:46 212 14.4
2020-May-27 09:40 217 15.0
2020-May-27 09:35 168 15.0
2020-May-27 09:31 168 15.0
2020-May-27 09:25 167 15.0
2020-May-27 09:20 167 15.0
2020-May-27 09:15 167 15.0
2020-May-27 09:10 167 15.0
2020-May-27 09:05 167 15.0
2020-May-27 09:01 219 15.0
2020-May-27 08:55 163 15.0
2020-May-27 08:51 163 15.0
2020-May-27 08:46 234 15.0
2020-May-27 08:40 230 15.0
2020-May-27 08:35 199 15.0
2020-May-27 08:31 238 15.0
2020-May-27 08:25 147 15.0
2020-May-27 08:20 146 15.0
2020-May-27 08:15 146 15.0
2020-May-27 08:10 189 15.0
2020-May-27 08:05 238 15.0
2020-May-27 08:01 242 15.0
2020-May-27 07:55 231 15.0
2020-May-27 07:50 237 15.0
2020-May-27 07:45 231 15.0
2020-May-27 07:40 204 15.0
2020-May-27 07:35 130 15.0
2020-May-27 07:30 206 15.0
2020-May-27 07:25 258 15.0
2020-May-27 07:20 124 15.0
2020-May-27 07:17 212 15.0
2020-May-27 07:10 120 15.0
2020-May-27 07:05 207 15.0
2020-May-27 07:02 205 15.0
2020-May-27 06:55 193 15.0
2020-May-27 06:50 193 15.0
2020-May-27 06:46 114 15.0
2020-May-27 06:40 114 15.0
2020-May-27 06:35 115 15.0
2020-May-27 06:31 223 15.0
2020-May-27 06:26 146 15.0
2020-May-27 06:20 146 15.0
2020-May-27 06:15 204 15.0
2020-May-27 06:10 204 15.0
2020-May-27 06:05 150 15.0
2020-May-27 06:01 150 15.0
2020-May-27 05:55 150 15.0
2020-May-27 05:50 167 15.0
2020-May-27 05:45 167 15.6
2020-May-27 05:40 158 15.6
2020-May-27 05:35 172 15.0
2020-May-27 05:31 172 15.0
2020-May-27 05:25 172 15.0
2020-May-27 05:20 172 15.0
2020-May-27 05:15 172 15.0
2020-May-27 05:10 172 15.0
2020-May-27 05:05 172 15.0
2020-May-27 05:01 172 15.0
2020-May-27 04:55 165 15.0
2020-May-27 04:50 227 15.0
2020-May-27 04:45 228 15.0
2020-May-27 04:40 235 15.0
2020-May-27 04:35 195 15.0
2020-May-27 04:30 217 15.0
2020-May-27 04:25 247 0 gusting 3 15.6
2020-May-27 04:20 188 15.6
2020-May-27 04:15 188 15.6
2020-May-27 04:10 188 15.6
2020-May-27 04:05 144 15.6
2020-May-27 04:00 132 15.6
2020-May-27 03:55 201 15.6
2020-May-27 03:50 201 15.6
2020-May-27 03:45 173 15.6
2020-May-27 03:40 148 15.6
2020-May-27 03:35 210 15.6
2020-May-27 03:30 218 15.6
2020-May-27 03:25 129 15.6
2020-May-27 03:20 176 15.6
2020-May-27 03:16 135 15.6
2020-May-27 03:10 137 15.6
2020-May-27 03:05 136 15.6
2020-May-27 03:01 119 15.6
2020-May-27 02:55 212 0 gusting 4 15.6
2020-May-27 02:50 138 15.6
2020-May-27 02:45 113 15.6
2020-May-27 02:40 147 15.6
2020-May-27 02:35 153 15.6
2020-May-27 02:30 192 15.6
2020-May-27 02:25 234 15.6
2020-May-27 02:20 158 15.6
2020-May-27 02:15 223 15.6
2020-May-27 02:10 147 15.6
2020-May-27 02:00 195 0 gusting 2 15.6
2020-May-27 01:55 158 0 gusting 2 15.6
2020-May-27 01:45 114 15.6
2020-May-27 01:40 241 15.6
2020-May-27 01:35 133 15.6
2020-May-27 01:30 093 15.6
2020-May-27 01:25 190 16.1
2020-May-27 01:20 125 0 gusting 2 16.1
2020-May-27 01:10 180 16.1
2020-May-27 01:05 160 16.1
2020-May-27 00:55 196 16.1
2020-May-27 00:50 229 16.1
2020-May-27 00:45 194 16.1
2020-May-27 00:40 197 16.1
2020-May-27 00:35 213 16.7
2020-May-27 00:30 237 16.7
2020-May-27 00:20 142 16.7
2020-May-27 00:15 207 16.7
2020-May-27 00:10 136 17.2
2020-May-27 00:00 149 0 gusting 5 17.2
2020-May-26 23:50 145 17.8
2020-May-26 23:45 217 0 gusting 3 17.8
2020-May-26 23:35 158 18.3
2020-May-26 23:25 143 18.3
2020-May-26 23:20 212 0 gusting 6 18.9
2020-May-26 23:10 231 0 gusting 6 18.9
2020-May-26 23:05 181 0 gusting 5 19.4
2020-May-26 23:00 144 1 gusting 6 19.4
2020-May-26 22:55 122 0 gusting 6 19.4
2020-May-26 22:45 229 0 gusting 4 20.0
2020-May-26 22:40 146 0 gusting 4 20.0
2020-May-26 22:35 162 0 gusting 4 20.6
2020-May-26 22:25 122 1 gusting 4 20.6
2020-May-26 22:20 140 0 gusting 4 20.6
2020-May-26 22:15 110 21.1
2020-May-26 22:10 113 0 gusting 6 21.1
2020-May-26 22:05 136 1 gusting 6 21.1
2020-May-26 22:00 153 21.1
2020-May-26 21:55 195 0 gusting 4 21.7
2020-May-26 21:50 181 0 gusting 5 21.7
2020-May-26 21:45 151 1 gusting 5 21.7
2020-May-26 21:40 236 0 gusting 4 21.7
2020-May-26 21:35 229 22.2
2020-May-26 21:30 216 0 gusting 5 22.2
2020-May-26 21:25 201 22.2
2020-May-26 21:20 255 0 gusting 3 22.2
2020-May-26 21:15 194 0 gusting 4 22.2
2020-May-26 21:10 225 22.8
2020-May-26 21:05 205 0 gusting 5 22.8
2020-May-26 21:00 172 0 gusting 5 23.3
2020-May-26 20:55 173 0 gusting 4 23.3
2020-May-26 20:50 180 0 gusting 4 23.3
2020-May-26 20:45 176 0 gusting 4 23.3
2020-May-26 20:40 191 0 gusting 5 23.9
2020-May-26 20:35 120 1 gusting 5 23.9
2020-May-26 20:30 130 23.9
2020-May-26 20:25 124 0 gusting 4 23.9
2020-May-26 20:20 283 0 gusting 5 23.9
2020-May-26 20:15 188 0 gusting 5 23.9
2020-May-26 20:06 173 24.4
2020-May-26 20:02 075 0 gusting 4 23.9
2020-May-26 19:55 224 0 gusting 4 23.9
2020-May-26 19:50 250 0 gusting 5 23.9
2020-May-26 19:47 210 1 gusting 5 23.9
2020-May-26 19:41 212 23.9
2020-May-26 19:36 205 23.9
2020-May-26 19:33 229 23.9
2020-May-26 19:25 229 0 gusting 4 23.9
2020-May-26 19:21 099 23.9
2020-May-26 19:17 235 0 gusting 5 23.9
2020-May-26 19:10 168 0 gusting 5 24.4
2020-May-26 19:05 244 0 gusting 3 24.4
2020-May-26 19:01 182 24.4
2020-May-26 18:55 112 0 gusting 5 23.9
2020-May-26 18:51 172 0 gusting 5 23.9
2020-May-26 18:45 249 23.9
2020-May-26 18:41 156 0 gusting 5 23.9
2020-May-26 18:35 176 23.9
2020-May-26 18:31 245 0 gusting 5 24.4
2020-May-26 18:25 098 23.9
2020-May-26 18:21 157 0 gusting 4 23.9
2020-May-26 18:16 219 23.9
2020-May-26 18:10 199 0 gusting 4 23.9
2020-May-26 18:05 128 23.3
2020-May-26 18:01 155 23.3
2020-May-26 17:55 112 1 gusting 6 23.3
2020-May-26 17:50 200 23.3
2020-May-26 17:26 172 22.8
2020-May-26 17:20 217 1 gusting 3 22.8
2020-May-26 17:15 196 22.8
2020-May-26 17:10 191 22.2
2020-May-26 17:05 203 21.7
2020-May-26 17:01 184 0 gusting 3 21.7
2020-May-26 16:55 198 21.1
2020-May-26 16:50 108 21.1
2020-May-26 16:45 106 20.6
2020-May-26 16:40 106 20.6
2020-May-26 16:35 151 20.6
2020-May-26 16:30 182 20.6
2020-May-26 16:25 173 20.0
2020-May-26 16:20 174 20.0
2020-May-26 16:15 174 19.4
2020-May-26 16:10 174 19.4
2020-May-26 16:05 170 19.4
2020-May-26 16:00 163 18.9
2020-May-26 15:55 131 18.9
2020-May-26 15:50 221 18.9
2020-May-26 15:45 227 18.9
2020-May-26 15:40 226 18.9
2020-May-26 15:35 225 18.9
2020-May-26 15:30 120 18.9
2020-May-26 15:25 149 18.9
2020-May-26 15:20 200 18.9
2020-May-26 15:15 257 18.3
2020-May-26 15:10 212 18.9
2020-May-26 15:05 203 18.9
2020-May-26 15:00 120 18.3
2020-May-26 14:55 146 18.3
2020-May-26 14:50 173 18.3
2020-May-26 14:40 226 18.3
2020-May-26 14:30 226 18.3
2020-May-26 14:25 226 17.8
2020-May-26 14:20 207 17.8
2020-May-26 14:15 220 17.8
2020-May-26 14:10 203 17.8
2020-May-26 14:05 203 17.8
2020-May-26 14:00 203 17.8
2020-May-26 13:50 203 17.8
2020-May-26 13:45 203 17.8
2020-May-26 13:40 180 17.2
2020-May-26 13:35 180 17.2
2020-May-26 13:30 161 17.2
2020-May-26 13:25 161 17.2
2020-May-26 13:20 161 17.2
2020-May-26 13:10 161 17.2
2020-May-26 13:05 161 17.2
2020-May-26 13:00 161 17.2
2020-May-26 12:55 161 17.2
2020-May-26 12:50 161 16.7
2020-May-26 12:45 161 16.7
2020-May-26 12:40 161 16.7
2020-May-26 12:32 161 16.7
2020-May-26 12:25 161 16.7
2020-May-26 12:20 161 16.7
2020-May-26 12:16 161 16.7
2020-May-26 12:11 161 16.7
2020-May-26 12:05 161 16.7
2020-May-26 12:01 161 16.7
2020-May-26 11:55 161 16.1
2020-May-26 11:50 161 16.1
2020-May-26 11:46 161 16.1
2020-May-26 11:40 161 16.1
2020-May-26 11:36 161 16.1
2020-May-26 11:32 161 16.1
2020-May-26 11:25 161 16.1
2020-May-26 11:21 161 16.1
2020-May-26 11:17 161 16.1
2020-May-26 11:11 161 16.1
2020-May-26 11:05 161 16.1
2020-May-26 11:01 161 16.1
2020-May-26 10:55 161 16.1
2020-May-26 10:50 161 16.1
2020-May-26 10:46 161 16.1
2020-May-26 10:40 161 16.1
2020-May-26 10:36 161 16.1
2020-May-26 10:31 161 15.6
2020-May-26 10:25 161 15.6
2020-May-26 10:21 161 15.6
2020-May-26 10:16 161 15.6
2020-May-26 10:10 161 16.1
2020-May-26 10:05 161 16.1
2020-May-26 10:01 161 16.1
2020-May-26 09:55 161 16.1
2020-May-26 09:50 161 16.1
2020-May-26 09:46 161 16.1
2020-May-26 09:40 161 16.1
2020-May-26 09:36 161 16.1
2020-May-26 09:31 161 16.1
2020-May-26 09:26 161 16.1
2020-May-26 09:20 161 16.1
2020-May-26 09:17 161 16.1
2020-May-26 09:10 161 16.1
2020-May-26 09:06 161 16.1
2020-May-26 09:02 162 16.1
2020-May-26 08:56 162 16.1
2020-May-26 08:50 162 16.1
2020-May-26 08:47 162 16.1
2020-May-26 08:40 162 16.1
2020-May-26 08:35 162 16.1
2020-May-26 08:31 162 16.1
2020-May-26 08:25 162 16.1
2020-May-26 08:20 162 16.1
2020-May-26 08:16 162 16.1
2020-May-26 08:10 162 16.1
2020-May-26 08:05 162 16.1
2020-May-26 08:01 162 16.1
2020-May-26 07:55 162 16.1
2020-May-26 07:50 162 16.1
2020-May-26 07:46 162 16.1
2020-May-26 07:40 162 16.1
2020-May-26 07:35 162 16.1
2020-May-26 07:31 162 16.1
2020-May-26 07:25 162 16.1
2020-May-26 07:21 162 16.1
2020-May-26 07:17 162 16.1
2020-May-26 07:10 162 16.1
2020-May-26 07:05 162 16.1
2020-May-26 07:01 162 16.1
2020-May-26 06:55 162 16.1
2020-May-26 06:50 162 16.1
2020-May-26 06:46 162 16.1
2020-May-26 06:40 162 16.7
2020-May-26 06:35 162 16.7
2020-May-26 06:31 162 16.7
2020-May-26 06:25 162 16.7
2020-May-26 06:20 162 16.7
2020-May-26 06:17 162 16.7
2020-May-26 06:10 162 16.7
2020-May-26 06:05 162 16.7
2020-May-26 06:00 162 16.7
2020-May-26 05:56 162 16.7
2020-May-26 05:50 162 16.7
2020-May-26 05:46 162 16.7
2020-May-26 05:40 162 16.7
2020-May-26 05:35 162 16.7
2020-May-26 05:30 162 16.7
2020-May-26 05:25 162 16.7
2020-May-26 05:20 162 16.7
2020-May-26 05:16 162 16.7
2020-May-26 05:10 162 16.7
2020-May-26 05:05 162 16.7
2020-May-26 05:01 162 16.7
2020-May-26 04:55 162 16.7
2020-May-26 04:50 162 16.7
2020-May-26 04:46 162 16.7
2020-May-26 04:40 162 16.7
2020-May-26 04:35 162 16.7
2020-May-26 04:31 162 16.7
2020-May-26 04:25 162 16.7
2020-May-26 04:20 162 16.7